| time (UTC) | temp C | wind direction | speed KPH | gust KPH | rain 1hr cm | rain 24hr cm | rain mn cm | humidity % | barometer mb |
| 20260505171605 | 13 | 168 | 1.6 | 6.4 | 0.00 | 0.38 | 0.00 | 100 | 1010.7 |
| 20260505171103 | 13 | 159 | 4.8 | 9.7 | 0.00 | 0.38 | 0.00 | 100 | 1010.8 |
| 20260505170602 | 13 | 172 | 3.2 | 9.7 | 0.00 | 0.38 | 0.00 | 100 | 1010.7 |
| 20260505165559 | 13 | 171 | 4.8 | 9.7 | 0.00 | 0.38 | 0.00 | 100 | 1010.7 |
| 20260505165058 | 13 | 170 | 4.8 | 9.7 | 0.00 | 0.38 | 0.00 | 100 | 1010.6 |
| 20260505164557 | 13 | 163 | 4.8 | 11.3 | 0.00 | 0.38 | 0.00 | 100 | 1010.6 |
| 20260505164056 | 13 | 214 | 3.2 | 11.3 | 0.00 | 0.38 | 0.00 | 100 | 1010.7 |
| 20260505163554 | 13 | 178 | 4.8 | 9.7 | 0.00 | 0.38 | 0.00 | 100 | 1010.8 |
| 20260505163053 | 13 | 168 | 3.2 | 8.0 | 0.00 | 0.38 | 0.00 | 100 | 1010.8 |
| 20260505162553 | 13 | 270 | 0.0 | 6.4 | 0.00 | 0.38 | 0.00 | 100 | 1010.7 |
| 20260505162052 | 13 | 247 | 1.6 | 9.7 | 0.00 | 0.38 | 0.00 | 100 | 1010.7 |
| 20260505161550 | 13 | 198 | 3.2 | 9.7 | 0.00 | 0.38 | 0.00 | 100 | 1010.7 |
| 20260505161049 | 13 | 299 | 1.6 | 4.8 | 0.00 | 0.38 | 0.00 | 100 | 1010.8 |
| 20260505160548 | 13 | 270 | 0.0 | 11.3 | 0.00 | 0.38 | 0.00 | 100 | 1010.7 |
| 20260505152539 | 13 | 159 | 4.8 | 19.3 | 0.00 | 0.38 | 0.00 | 100 | 1010.8 |
| 20260505152037 | 13 | 167 | 8.0 | 19.3 | 0.00 | 0.38 | 0.00 | 100 | 1010.8 |
| 20260505151535 | 12 | 161 | 9.7 | 19.3 | 0.00 | 0.38 | 0.00 | 100 | 1010.7 |
| 20260505151034 | 12 | 167 | 9.7 | 16.1 | 0.00 | 0.38 | 0.00 | 100 | 1010.8 |
| 20260505150532 | 12 | 176 | 6.4 | 20.9 | 0.13 | 0.38 | 0.00 | 100 | 1010.8 |
| 20260505140516 | 18 | 165 | 8.0 | 20.9 | 0.00 | 0.28 | 0.00 | 100 | 1009.9 |
| 20260505124958 | 16 | 286 | 3.2 | 14.5 | 0.03 | 0.28 | 0.00 | 100 | 1010.3 |
| 20260505124456 | 16 | 164 | 4.8 | 20.9 | 0.03 | 0.28 | 0.00 | 100 | 1010.3 |
| 20260505123956 | 16 | 179 | 4.8 | 20.9 | 0.03 | 0.28 | 0.00 | 100 | 1010.4 |
| 20260505123454 | 15 | 207 | 3.2 | 17.7 | 0.03 | 0.28 | 0.00 | 100 | 1010.3 |
| 20260505122954 | 15 | 220 | 3.2 | 11.3 | 0.00 | 0.25 | 0.00 | 100 | 1010.3 |
| 20260505122453 | 15 | 166 | 4.8 | 11.3 | 0.00 | 0.25 | 0.00 | 100 | 1010.3 |
| 20260505121951 | 15 | 161 | 4.8 | 11.3 | 0.00 | 0.25 | 0.00 | 100 | 1010.4 |
| 20260505121450 | 15 | 150 | 4.8 | 11.3 | 0.00 | 0.25 | 0.00 | 100 | 1010.5 |
| 20260505120950 | 15 | 161 | 4.8 | 12.9 | 0.00 | 0.25 | 0.00 | 100 | 1010.6 |
| 20260505120449 | 13 | 168 | 4.8 | 14.5 | 0.10 | 0.25 | 0.00 | 100 | 1010.6 |
| 20260505115948 | 13 | 172 | 6.4 | 14.5 | 0.10 | 0.25 | 0.00 | 100 | 1010.7 |
| 20260505115447 | 12 | 187 | 4.8 | 14.5 | 0.10 | 0.25 | 0.00 | 100 | 1010.8 |
| 20260505114945 | 12 | 173 | 6.4 | 14.5 | 0.10 | 0.25 | 0.00 | 100 | 1010.9 |
| 20260505114444 | 12 | 190 | 6.4 | 16.1 | 0.10 | 0.25 | 0.00 | 100 | 1010.9 |
| 20260505113441 | 12 | 186 | 6.4 | 16.1 | 0.08 | 0.23 | 0.00 | 100 | 1010.8 |
| 20260505112940 | 12 | 178 | 8.0 | 16.1 | 0.08 | 0.23 | 0.00 | 100 | 1011.0 |
| 20260505111938 | 12 | 161 | 4.8 | 22.5 | 0.05 | 0.20 | 0.00 | 100 | 1010.8 |
| 20260505111437 | 12 | 191 | 3.2 | 22.5 | 0.03 | 0.18 | 0.00 | 100 | 1010.9 |
| 20260505110435 | 13 | 252 | 3.2 | 6.4 | 0.05 | 0.10 | 0.00 | 100 | 1010.9 |
| 20260505101421 | 13 | 254 | 3.2 | 6.4 | 0.00 | 0.05 | 0.00 | 100 | 1011.0 |
| 20260505100417 | 13 | 239 | 3.2 | 9.7 | 0.03 | 0.05 | 0.00 | 100 | 1011.0 |
| 20260505095915 | 13 | 247 | 1.6 | 11.3 | 0.00 | 0.03 | 0.00 | 100 | 1010.9 |
| 20260505095415 | 14 | 279 | 4.8 | 14.5 | 0.00 | 0.03 | 0.00 | 100 | 1010.9 |
| 20260505094913 | 14 | 259 | 4.8 | 14.5 | 0.00 | 0.03 | 0.00 | 100 | 1010.8 |
| 20260505094411 | 14 | 262 | 3.2 | 6.4 | 0.00 | 0.03 | 0.00 | 100 | 1010.8 |
| 20260505093909 | 14 | 273 | 3.2 | 9.7 | 0.00 | 0.03 | 0.00 | 100 | 1010.8 |
| 20260505093406 | 14 | 239 | 4.8 | 12.9 | 0.00 | 0.03 | 0.00 | 100 | 1010.9 |
| 20260505092903 | 14 | 238 | 3.2 | 12.9 | 0.00 | 0.03 | 0.00 | 100 | 1010.7 |
| 20260505091857 | 15 | 296 | 3.2 | 9.7 | 0.00 | 0.03 | 0.00 | 100 | 1010.7 |
| 20260505091356 | 15 | 255 | 3.2 | 8.0 | 0.00 | 0.03 | 0.00 | 100 | 1010.7 |
| 20260505090854 | 15 | 264 | 1.6 | 9.7 | 0.00 | 0.03 | 0.00 | 100 | 1010.6 |
| 20260505090352 | 15 | 156 | 1.6 | 9.7 | 0.00 | 0.03 | 0.00 | 100 | 1010.7 |
| 20260505085851 | 15 | 231 | 1.6 | 4.8 | 0.00 | 0.03 | 0.00 | 100 | 1010.6 |
| 20260505085350 | 15 | 257 | 1.6 | 4.8 | 0.00 | 0.03 | 0.00 | 100 | 1010.6 |
| 20260505084849 | 15 | 252 | 1.6 | 9.7 | 0.00 | 0.03 | 0.00 | 100 | 1010.6 |
| 20260505084348 | 15 | 174 | 4.8 | 9.7 | 0.00 | 0.03 | 0.00 | 100 | 1010.6 |
| 20260505083847 | 15 | 161 | 3.2 | 8.0 | 0.00 | 0.03 | 0.00 | 100 | 1010.6 |
| 20260505083344 | 15 | 168 | 3.2 | 6.4 | 0.00 | 0.03 | 0.00 | 100 | 1010.5 |
| 20260505082843 | 15 | 149 | 3.2 | 6.4 | 0.00 | 0.03 | 0.00 | 100 | 1010.4 |
| 20260505082340 | 14 | 124 | 1.6 | 6.4 | 0.00 | 0.03 | 0.00 | 100 | 1010.5 |
| 20260505081837 | 13 | 173 | 3.2 | 8.0 | 0.00 | 0.03 | 0.00 | 100 | 1010.4 |
| 20260505081335 | 13 | 149 | 3.2 | 8.0 | 0.00 | 0.03 | 0.00 | 100 | 1010.4 |
| 20260505080834 | 13 | 161 | 3.2 | 6.4 | 0.00 | 0.03 | 0.00 | 100 | 1010.4 |
| 20260505080333 | 13 | 165 | 3.2 | 6.4 | 0.00 | 0.03 | 0.00 | 100 | 1010.5 |
| 20260505075832 | 13 | 166 | 1.6 | 4.8 | 0.00 | 0.03 | 0.00 | 100 | 1010.4 |
| 20260505075330 | 13 | 160 | 1.6 | 6.4 | 0.00 | 0.03 | 0.00 | 100 | 1010.4 |
| 20260505074828 | 13 | 183 | 1.6 | 6.4 | 0.00 | 0.03 | 0.00 | 100 | 1010.6 |
| 20260505074326 | 13 | 172 | 1.6 | 4.8 | 0.00 | 0.03 | 0.00 | 100 | 1010.6 |
| 20260505073826 | 12 | 226 | 1.6 | 4.8 | 0.00 | 0.03 | 0.00 | 100 | 1010.7 |
| 20260505073323 | 12 | 166 | 1.6 | 4.8 | 0.00 | 0.03 | 0.00 | 100 | 1010.6 |
| 20260505072821 | 12 | 173 | 3.2 | 4.8 | 0.00 | 0.03 | 0.00 | 100 | 1010.7 |
| 20260505072317 | 12 | 162 | 1.6 | 6.4 | 0.00 | 0.03 | 0.00 | 100 | 1010.7 |
| 20260505071816 | 12 | 169 | 3.2 | 6.4 | 0.00 | 0.03 | 0.00 | 100 | 1010.8 |
| 20260505071314 | 12 | 167 | 0.0 | 3.2 | 0.00 | 0.03 | 0.00 | 100 | 1010.8 |
| 20260505070814 | 12 | 126 | 0.0 | 4.8 | 0.00 | 0.03 | 0.00 | 100 | 1010.8 |
| 20260505070313 | 12 | 155 | 1.6 | 4.8 | 0.00 | 0.03 | 0.00 | 100 | 1010.9 |
| 20260505065310 | 11 | 303 | 0.0 | 1.6 | 0.00 | 0.03 | 0.00 | 100 | 1010.9 |
| 20260505064809 | 11 | 308 | 0.0 | 1.6 | 0.00 | 0.03 | 0.00 | 100 | 1010.9 |
| 20260505064307 | 11 | 354 | 0.0 | 1.6 | 0.00 | 0.03 | 0.00 | 100 | 1010.9 |
| 20260505063806 | 11 | 285 | 0.0 | 1.6 | 0.00 | 0.03 | 0.00 | 100 | 1011.0 |
| 20260505063305 | 11 | 315 | 0.0 | 0.0 | 0.00 | 0.03 | 0.00 | 100 | 1011.0 |
| 20260505062803 | 11 | 311 | 0.0 | 0.0 | 0.00 | 0.03 | 0.00 | 100 | 1011.0 |
| 20260505062301 | 10 | 266 | 0.0 | 0.0 | 0.00 | 0.03 | 0.00 | 100 | 1011.1 |
| 20260505061800 | 10 | 281 | 0.0 | 0.0 | 0.00 | 0.03 | 0.00 | 100 | 1011.2 |
| 20260505061258 | 10 | 308 | 0.0 | 1.6 | 0.00 | 0.03 | 0.00 | 100 | 1011.2 |
| 20260505060256 | 10 | 176 | 0.0 | 1.6 | 0.03 | 0.03 | 0.00 | 100 | 1011.3 |
| 20260505055754 | 10 | 271 | 0.0 | 3.2 | 0.03 | 0.03 | 0.00 | 100 | 1011.4 |
| 20260505055254 | 10 | 185 | 0.0 | 3.2 | 0.03 | 0.03 | 0.00 | 100 | 1011.4 |
| 20260505054752 | 10 | 185 | 0.0 | 0.0 | 0.03 | 0.03 | 0.00 | 100 | 1011.4 |
| 20260505054251 | 10 | 254 | 0.0 | 0.0 | 0.03 | 0.03 | 0.00 | 100 | 1011.4 |
| 20260505053751 | 10 | 318 | 0.0 | 0.0 | 0.03 | 0.03 | 0.00 | 100 | 1011.5 |
| 20260505053250 | 10 | 273 | 0.0 | 0.0 | 0.00 | 0.00 | 0.00 | 100 | 1011.4 |
| 20260505052749 | 10 | 311 | 0.0 | 1.6 | 0.00 | 0.00 | 0.00 | 100 | 1011.5 |
| 20260505051745 | 10 | 9 | 0.0 | 3.2 | 0.00 | 0.00 | 0.00 | 100 | 1011.6 |
| 20260505051244 | 10 | 171 | 1.6 | 4.8 | 0.00 | 0.00 | 0.00 | 100 | 1011.7 |
| 20260505050743 | 10 | 231 | 0.0 | 4.8 | 0.00 | 0.00 | 0.00 | 100 | 1011.7 |
| 20260505050241 | 10 | 87 | 0.0 | 3.2 | 0.05 | 0.46 | 0.00 | 100 | 1011.8 |
| 20260505041727 | 10 | 329 | 0.0 | 1.6 | 0.03 | 0.43 | 0.00 | 100 | 1012.0 |
| 20260505041226 | 10 | 316 | 0.0 | 1.6 | 0.00 | 0.41 | 0.00 | 100 | 1012.1 |
| 20260505040725 | 10 | 265 | 0.0 | 1.6 | 0.00 | 0.41 | 0.00 | 100 | 1012.1 |
| 20260505035722 | 10 | 161 | 1.6 | 3.2 | 0.08 | 0.38 | 0.00 | 100 | 1012.4 |
| 20260505035221 | 10 | 239 | 0.0 | 3.2 | 0.08 | 0.38 | 0.00 | 100 | 1012.3 |
| 20260505034720 | 10 | 165 | 1.6 | 4.8 | 0.08 | 0.38 | 0.00 | 100 | 1012.3 |
| 20260505034220 | 9 | 172 | 1.6 | 6.4 | 0.05 | 0.36 | 0.00 | 100 | 1012.4 |
| 20260505033719 | 9 | 174 | 3.2 | 6.4 | 0.05 | 0.36 | 0.00 | 100 | 1012.4 |
| 20260505033218 | 9 | 169 | 3.2 | 6.4 | 0.05 | 0.36 | 0.00 | 100 | 1012.4 |
| 20260505032717 | 9 | 169 | 1.6 | 4.8 | 0.05 | 0.36 | 0.00 | 100 | 1012.4 |
| 20260505032216 | 9 | 173 | 3.2 | 4.8 | 0.03 | 0.36 | 0.00 | 100 | 1012.4 |
| 20260505031715 | 9 | 165 | 1.6 | 4.8 | 0.03 | 0.36 | 0.00 | 100 | 1012.5 |
| 20260505031213 | 9 | 171 | 3.2 | 4.8 | 0.03 | 0.36 | 0.00 | 100 | 1012.6 |
| 20260505030709 | 9 | 168 | 1.6 | 3.2 | 0.00 | 0.33 | 0.00 | 100 | 1012.5 |
| 20260505030209 | 9 | 166 | 1.6 | 4.8 | 0.08 | 0.33 | 0.00 | 100 | 1012.6 |
| 20260505025702 | 9 | 171 | 1.6 | 4.8 | 0.08 | 0.33 | 0.00 | 100 | 1012.6 |
| 20260505025158 | 9 | 179 | 1.6 | 3.2 | 0.05 | 0.30 | 0.00 | 100 | 1012.7 |
| 20260505024653 | 10 | 170 | 1.6 | 3.2 | 0.05 | 0.30 | 0.00 | 100 | 1012.8 |
| 20260505024145 | 10 | 173 | 1.6 | 4.8 | 0.05 | 0.30 | 0.00 | 100 | 1012.7 |
| 20260505023642 | 10 | 168 | 1.6 | 4.8 | 0.05 | 0.30 | 0.00 | 100 | 1012.8 |
| 20260505023141 | 10 | 176 | 1.6 | 4.8 | 0.03 | 0.28 | 0.00 | 100 | 1012.8 |
| 20260505022637 | 9 | 193 | 1.6 | 4.8 | 0.03 | 0.28 | 0.00 | 100 | 1012.9 |
| 20260505022136 | 9 | 173 | 1.6 | 3.2 | 0.03 | 0.28 | 0.00 | 100 | 1012.8 |
| 20260505021635 | 9 | 170 | 1.6 | 3.2 | 0.03 | 0.28 | 0.00 | 100 | 1012.8 |
| 20260505021134 | 9 | 168 | 1.6 | 3.2 | 0.00 | 0.25 | 0.00 | 100 | 1012.9 |
| 20260505020132 | 9 | 160 | 0.0 | 3.2 | 0.08 | 0.23 | 0.00 | 100 | 1012.9 |
| 20260505015631 | 9 | 187 | 0.0 | 4.8 | 0.08 | 0.23 | 0.00 | 100 | 1012.9 |
| 20260505015129 | 9 | 158 | 1.6 | 4.8 | 0.05 | 0.20 | 0.00 | 100 | 1012.9 |
| 20260505014628 | 9 | 168 | 1.6 | 6.4 | 0.05 | 0.20 | 0.00 | 100 | 1013.0 |
| 20260505013625 | 9 | 172 | 4.8 | 8.0 | 0.03 | 0.18 | 0.00 | 100 | 1013.1 |
| 20260505013124 | 8 | 172 | 0.0 | 1.6 | 0.03 | 0.18 | 0.00 | 100 | 1013.0 |
| 20260505012119 | 8 | 352 | 0.0 | 1.6 | 0.00 | 0.15 | 0.00 | 100 | 1013.1 |
| 20260505011115 | 9 | 300 | 0.0 | 4.8 | 0.00 | 0.15 | 0.00 | 100 | 1013.0 |
| 20260505010614 | 10 | 18 | 1.6 | 4.8 | 0.00 | 0.15 | 0.00 | 100 | 1013.1 |
| 20260505010113 | 9 | 332 | 0.0 | 1.6 | 0.00 | 0.15 | 0.00 | 100 | 1013.1 |
| 20260505005612 | 9 | 315 | 0.0 | 4.8 | 0.00 | 0.15 | 0.00 | 100 | 1013.3 |
| 20260505005111 | 9 | 170 | 0.0 | 6.4 | 0.00 | 0.15 | 0.00 | 100 | 1013.4 |
| 20260505004610 | 9 | 220 | 1.6 | 6.4 | 0.00 | 0.15 | 0.00 | 100 | 1013.4 |
| 20260505003606 | 8 | 207 | 1.6 | 4.8 | 0.00 | 0.15 | 0.00 | 100 | 1013.5 |
| 20260505003106 | 8 | 259 | 0.0 | 4.8 | 0.00 | 0.15 | 0.00 | 100 | 1013.5 |
| 20260505002104 | 8 | 195 | 1.6 | 4.8 | 0.00 | 0.15 | 0.00 | 100 | 1013.6 |
| 20260505001603 | 8 | 229 | 1.6 | 4.8 | 0.00 | 0.15 | 0.00 | 100 | 1013.7 |
| 20260505001102 | 8 | 236 | 1.6 | 4.8 | 0.00 | 0.15 | 0.00 | 100 | 1013.7 |
| 20260505000600 | 8 | 178 | 3.2 | 6.4 | 0.00 | 0.15 | 0.00 | 100 | 1013.7 |
| 20260505000059 | 8 | 174 | 3.2 | 6.4 | 0.00 | 0.15 | 0.00 | 100 | 1013.7 |
| 20260504235558 | 8 | 175 | 1.6 | 4.8 | 0.00 | 0.15 | 0.00 | 100 | 1013.5 |
| 20260504234556 | 8 | 189 | 1.6 | 4.8 | 0.00 | 0.15 | 0.00 | 100 | 1013.5 |
| 20260504234055 | 8 | 172 | 1.6 | 3.2 | 0.00 | 0.15 | 0.00 | 100 | 1013.5 |
| 20260504233554 | 8 | 286 | 0.0 | 4.8 | 0.00 | 0.15 | 0.00 | 100 | 1013.3 |
| 20260504233053 | 8 | 300 | 0.0 | 4.8 | 0.00 | 0.15 | 0.00 | 100 | 1013.4 |
| 20260504232552 | 8 | 192 | 0.0 | 3.2 | 0.00 | 0.15 | 0.00 | 100 | 1013.5 |
| 20260504231549 | 7 | 302 | 0.0 | 1.6 | 0.00 | 0.15 | 0.00 | 100 | 1013.6 |
| 20260504231049 | 7 | 278 | 0.0 | 4.8 | 0.00 | 0.15 | 0.00 | 100 | 1013.5 |
| 20260504230547 | 7 | 185 | 1.6 | 4.8 | 0.00 | 0.15 | 0.00 | 100 | 1013.7 |
| 20260504230046 | 7 | 165 | 1.6 | 4.8 | 0.00 | 0.15 | 0.00 | 100 | 1013.6 |
| 20260504225544 | 7 | 213 | 0.0 | 4.8 | 0.00 | 0.15 | 0.00 | 100 | 1013.6 |
| 20260504225043 | 7 | 254 | 0.0 | 0.0 | 0.00 | 0.15 | 0.00 | 100 | 1013.6 |
| 20260504224542 | 7 | 268 | 0.0 | 0.0 | 0.00 | 0.15 | 0.00 | 100 | 1013.6 |
| 20260504224041 | 7 | 259 | 0.0 | 3.2 | 0.00 | 0.15 | 0.00 | 100 | 1013.8 |
| 20260504223540 | 7 | 253 | 0.0 | 3.2 | 0.00 | 0.15 | 0.00 | 100 | 1013.6 |
| 20260504223039 | 7 | 246 | 1.6 | 3.2 | 0.00 | 0.15 | 0.00 | 100 | 1013.7 |
| 20260504222538 | 7 | 268 | 0.0 | 4.8 | 0.00 | 0.15 | 0.00 | 100 | 1013.8 |
| 20260504222036 | 7 | 177 | 1.6 | 4.8 | 0.00 | 0.15 | 0.00 | 100 | 1013.9 |
| 20260504221535 | 7 | 171 | 3.2 | 4.8 | 0.00 | 0.15 | 0.00 | 100 | 1013.9 |
| 20260504221034 | 7 | 261 | 0.0 | 3.2 | 0.00 | 0.15 | 0.00 | 100 | 1013.8 |
| 20260504220532 | 8 | 230 | 0.0 | 4.8 | 0.00 | 0.15 | 0.00 | 100 | 1013.7 |
| 20260504220031 | 7 | 177 | 1.6 | 4.8 | 0.00 | 0.15 | 0.00 | 100 | 1013.8 |
| 20260504215530 | 7 | 254 | 0.0 | 3.2 | 0.00 | 0.15 | 0.00 | 100 | 1013.7 |
| 20260504215028 | 7 | 170 | 1.6 | 3.2 | 0.00 | 0.15 | 0.00 | 100 | 1013.8 |
| 20260504214527 | 7 | 203 | 0.0 | 3.2 | 0.00 | 0.15 | 0.00 | 100 | 1013.9 |
| 20260504214026 | 8 | 263 | 1.6 | 1.6 | 0.00 | 0.15 | 0.00 | 100 | 1014.0 |
| 20260504213525 | 8 | 225 | 0.0 | 3.2 | 0.00 | 0.15 | 0.00 | 100 | 1014.1 |
| 20260504212522 | 8 | 278 | 0.0 | 3.2 | 0.00 | 0.15 | 0.00 | 100 | 1014.0 |
| 20260504212021 | 8 | 179 | 1.6 | 3.2 | 0.00 | 0.15 | 0.00 | 100 | 1014.0 |
| 20260504211521 | 8 | 267 | 0.0 | 3.2 | 0.00 | 0.15 | 0.00 | 100 | 1014.0 |
| 20260504211019 | 8 | 175 | 1.6 | 3.2 | 0.00 | 0.15 | 0.00 | 100 | 1014.0 |
| 20260504210518 | 8 | 194 | 1.6 | 3.2 | 0.00 | 0.15 | 0.00 | 100 | 1014.1 |
| 20260504210017 | 9 | 200 | 0.0 | 3.2 | 0.00 | 0.15 | 0.00 | 100 | 1014.1 |
| 20260504205515 | 9 | 177 | 1.6 | 3.2 | 0.00 | 0.15 | 0.00 | 100 | 1014.2 |
| 20260504204513 | 9 | 225 | 0.0 | 1.6 | 0.00 | 0.15 | 0.00 | 100 | 1014.2 |
| 20260504204011 | 9 | 189 | 0.0 | 1.6 | 0.00 | 0.15 | 0.00 | 100 | 1014.3 |
| 20260504203009 | 10 | 252 | 0.0 | 0.0 | 0.00 | 0.15 | 0.00 | 100 | 1014.4 |
| 20260504202508 | 10 | 270 | 0.0 | 0.0 | 0.00 | 0.15 | 0.00 | 100 | 1014.3 |
| 20260504202006 | 10 | 181 | 0.0 | 0.0 | 0.00 | 0.15 | 0.00 | 100 | 1014.4 |
| 20260504201003 | 10 | 300 | 0.0 | 0.0 | 0.00 | 0.15 | 0.00 | 100 | 1014.4 |
| 20260504200503 | 10 | 356 | 0.0 | 0.0 | 0.00 | 0.15 | 0.00 | 100 | 1014.3 |
| 20260504200001 | 10 | 315 | 0.0 | 0.0 | 0.00 | 0.15 | 0.00 | 100 | 1014.2 |
| 20260504195500 | 10 | 270 | 0.0 | 0.0 | 0.00 | 0.15 | 0.00 | 100 | 1014.2 |
| 20260504194959 | 11 | 270 | 0.0 | 0.0 | 0.00 | 0.15 | 0.00 | 100 | 1014.2 |
| 20260504194457 | 11 | 270 | 0.0 | 0.0 | 0.00 | 0.15 | 0.00 | 100 | 1014.2 |
| 20260504193956 | 11 | 137 | 0.0 | 1.6 | 0.00 | 0.15 | 0.00 | 100 | 1014.2 |
| 20260504193455 | 11 | 181 | 0.0 | 1.6 | 0.00 | 0.15 | 0.00 | 100 | 1014.3 |
| 20260504192953 | 11 | 258 | 0.0 | 1.6 | 0.00 | 0.15 | 0.00 | 100 | 1014.2 |
| 20260504191951 | 11 | 25 | 0.0 | 1.6 | 0.00 | 0.15 | 0.00 | 100 | 1014.1 |
| 20260504191450 | 11 | 358 | 0.0 | 1.6 | 0.00 | 0.15 | 0.00 | 100 | 1014.1 |
| 20260504190949 | 11 | 27 | 0.0 | 1.6 | 0.00 | 0.15 | 0.00 | 100 | 1014.2 |
| 20260504190448 | 11 | 343 | 0.0 | 0.0 | 0.00 | 0.15 | 0.00 | 100 | 1014.1 |
| 20260504185446 | 12 | 47 | 0.0 | 4.8 | 0.00 | 0.15 | 0.00 | 100 | 1014.1 |
| 20260504184945 | 12 | 121 | 0.0 | 4.8 | 0.00 | 0.15 | 0.00 | 100 | 1014.1 |
| 20260504184444 | 12 | 15 | 0.0 | 1.6 | 0.00 | 0.15 | 0.00 | 100 | 1014.0 |
| 20260504183441 | 12 | 279 | 0.0 | 1.6 | 0.00 | 0.15 | 0.00 | 100 | 1014.0 |
| 20260504182940 | 12 | 280 | 0.0 | 0.0 | 0.00 | 0.15 | 0.00 | 100 | 1014.0 |
| 20260504182439 | 12 | 234 | 0.0 | 1.6 | 0.00 | 0.15 | 0.00 | 100 | 1014.0 |
| 20260504181937 | 12 | 250 | 0.0 | 1.6 | 0.00 | 0.15 | 0.00 | 100 | 1014.0 |
| 20260504181436 | 12 | 276 | 0.0 | 1.6 | 0.00 | 0.15 | 0.00 | 100 | 1014.0 |
| 20260504180935 | 12 | 0 | 0.0 | 1.6 | 0.00 | 0.15 | 0.00 | 100 | 1014.1 |
| 20260504180433 | 13 | 259 | 0.0 | 6.4 | 0.00 | 0.15 | 0.00 | 100 | 1014.1 |
| 20260504175932 | 13 | 234 | 3.2 | 9.7 | 0.00 | 0.15 | 0.00 | 100 | 1014.0 |
| 20260504175430 | 13 | 58 | 0.0 | 3.2 | 0.00 | 0.15 | 0.00 | 100 | 1014.1 |
| 20260504174930 | 13 | 334 | 0.0 | 0.0 | 0.00 | 0.15 | 0.00 | 100 | 1014.1 |
| 20260504174427 | 13 | 287 | 0.0 | 1.6 | 0.00 | 0.15 | 0.00 | 100 | 1014.2 |
| 20260504173926 | 13 | 300 | 0.0 | 3.2 | 0.00 | 0.15 | 0.00 | 100 | 1014.1 |
| 20260504173425 | 14 | 298 | 1.6 | 3.2 | 0.00 | 0.15 | 0.00 | 100 | 1014.0 |
| 20260504172923 | 14 | 287 | 0.0 | 1.6 | 0.00 | 0.15 | 0.00 | 100 | 1014.1 |
| 20260504172422 | 15 | 268 | 0.0 | 6.4 | 0.00 | 0.15 | 0.00 | 100 | 1014.1 |
| 20260504171921 | 15 | 289 | 0.0 | 3.2 | 0.00 | 0.15 | 0.00 | 100 | 1014.1 |